Date String (YYYY-MM-DD hh:mm:ss) UTC,Instrument flags,absolute air pressure of the measurement (hPa),sample flow rate (lpm),inlet stack bypass flow (lpm),air temperature of the measurement (°C),ambient temperature measured by the external sensor (°C),aerosol sample conditioner tube jacket temperature (°C),OPC LED temperature (°C),internal box temperature (°C),relative humidity of the measurement (%),span deviation,mass concentration of particles derived from Lorenz-Mie calculation of OPC scattering (μg/m³),mass concentration of particles derived from Lorenz-Mie calculation of OPC scattering (μg/m³),mass concentration of particles derived from Lorenz-Mie calculation of OPC scattering (μg/m³)
DateTimeUTC,F1_M11,P_M11,Q1_M11,Q2_M11,T1_M11,T2_M11,T3_M11,T4_M11,T5_M11,U1_M11,ZSPAN_M11,X0_M11,X2_M11,X1_M11
2023-06-24 20:00:00,SystemResetWarning,0830.3,5.00,000.00,029.1,025.8,000.0,037.5,030.5,12.0,0000.0,0013.95,0004.83,0004.03
2023-06-24 20:01:00,SystemResetWarning,0830.3,4.98,000.00,029.1,026.2,000.0,037.6,030.5,13.1,0000.0,0013.95,0004.84,0004.05
2023-06-24 20:02:00,SystemResetWarning,0830.3,4.99,000.00,029.1,026.6,000.0,037.6,030.6,12.0,0000.0,0012.45,0004.82,0004.05
2023-06-24 20:03:00,SystemResetWarning,0830.3,5.00,000.00,029.1,026.9,000.0,037.6,030.6,11.5,0000.0,0011.53,0004.76,0004.03
2023-06-24 20:04:00,SystemResetWarning,0830.3,5.00,000.00,029.2,027.2,000.0,037.6,030.7,13.0,0001.6,0011.43,0004.71,0004.03
2023-06-24 20:05:00,SystemResetWarning,0830.3,5.01,000.00,029.2,027.4,000.0,037.6,030.8,11.8,0002.0,0011.46,0004.71,0004.03
2023-06-24 20:06:00,SystemResetWarning,0830.3,5.00,000.00,029.2,027.6,000.0,037.7,030.8,13.4,0000.0,0011.52,0004.75,0004.04
2023-06-24 20:07:00,SystemResetWarning,0830.3,5.00,000.00,029.3,027.5,000.0,037.7,030.9,13.5,0001.3,0011.83,0004.79,0004.04
2023-06-24 20:08:00,SystemResetWarning,0830.3,4.98,000.00,029.3,025.7,000.0,037.6,030.9,13.5,0000.0,0011.37,0004.83,0004.04
2023-06-24 20:09:00,SystemResetWarning,0830.3,5.01,000.00,029.3,025.3,000.0,037.6,030.9,11.5,0000.0,0010.89,0004.86,0004.03
2023-06-24 20:10:00,SystemResetWarning,0830.3,5.01,000.00,029.2,025.6,000.0,037.6,030.7,13.7,0000.0,0011.13,0004.90,0004.04
2023-06-24 20:11:00,SystemResetWarning,0830.2,4.99,000.00,029.2,025.9,000.0,037.6,030.6,12.9,0000.0,0012.25,0004.95,0004.06
2023-06-24 20:12:00,SystemResetWarning,0830.3,5.00,000.00,029.2,026.3,000.0,037.6,030.6,12.8,0002.8,0012.09,0004.96,0004.07
2023-06-24 20:13:00,SystemResetWarning,0830.2,5.00,000.00,029.2,026.7,000.0,037.6,030.6,13.7,0004.1,0013.34,0005.03,0004.11
2023-06-24 20:14:00,SystemResetWarning,0830.2,5.00,000.00,029.2,027.0,000.0,037.6,030.7,12.9,0004.1,0013.42,0005.08,0004.13
2023-06-24 20:15:00,SystemResetWarning,0830.3,5.00,000.00,029.2,027.3,000.0,037.7,030.8,12.4,0003.9,0012.84,0005.12,0004.16
2023-06-24 20:16:00,SystemResetWarning,0830.2,5.00,000.00,029.2,027.5,000.0,037.7,030.8,12.4,0003.3,0012.81,0005.09,0004.16
2023-06-24 20:17:00,SystemResetWarning,0830.2,4.99,000.00,029.3,027.5,000.0,037.7,030.9,12.7,0003.3,0012.75,0005.05,0004.16
2023-06-24 20:18:00,SystemResetWarning,0830.3,4.99,000.00,029.3,026.0,000.0,037.6,030.9,11.8,0003.6,0012.28,0005.00,0004.16
2023-06-24 20:19:00,SystemResetWarning,0830.2,5.02,000.00,029.3,025.3,000.0,037.6,030.8,11.5,0003.7,0012.28,0005.00,0004.16
2023-06-24 20:20:00,SystemResetWarning,0830.2,5.00,000.00,029.2,025.6,000.0,037.6,030.7,11.9,0003.8,0013.15,0005.00,0004.17
2023-06-24 20:21:00,SystemResetWarning,0830.1,4.98,000.00,029.2,025.9,000.0,037.6,030.6,12.4,0003.9,0014.08,0004.95,0004.16
2023-06-24 20:22:00,SystemResetWarning,0830.2,5.00,000.00,029.2,026.3,000.0,037.6,030.6,11.3,0003.9,0013.24,0004.91,0004.16
2023-06-24 20:23:00,SystemResetWarning,0830.2,5.00,000.00,029.2,026.7,000.0,037.6,030.6,12.1,0003.7,0013.59,0004.92,0004.16
2023-06-24 20:24:00,SystemResetWarning,0830.2,5.00,000.00,029.2,027.0,000.0,037.7,030.7,11.8,0003.8,0012.08,0004.89,0004.15
2023-06-24 20:25:00,SystemResetWarning,0830.3,5.00,000.00,029.2,027.3,000.0,037.7,030.7,13.4,0000.5,0011.95,0004.88,0004.16
2023-06-24 20:26:00,SystemResetWarning,0830.2,4.99,000.00,029.2,027.5,000.0,037.7,030.8,13.1,0000.0,0012.02,0004.91,0004.21
2023-06-24 20:27:00,SystemResetWarning,0830.2,5.00,000.00,029.3,027.6,000.0,037.7,030.9,11.5,0002.5,0012.10,0005.02,0004.31
2023-06-24 20:28:00,SystemResetWarning,0830.2,4.99,000.00,029.3,026.2,000.0,037.7,031.0,11.7,0005.1,0012.16,0005.14,0004.43
2023-06-24 20:29:00,SystemResetWarning,0830.2,5.01,000.00,029.3,025.2,000.0,037.6,031.0,11.6,0005.1,0012.31,0005.26,0004.54
2023-06-24 20:30:00,SystemResetWarning,0830.2,5.01,000.00,029.3,025.5,000.0,037.6,030.8,13.1,0004.9,0012.66,0005.40,0004.63
2023-06-24 20:31:00,SystemResetWarning,0830.2,4.99,000.00,029.2,025.8,000.0,037.6,030.6,12.4,0005.0,0011.91,0005.52,0004.73
2023-06-24 20:32:00,SystemResetWarning,0830.2,5.00,000.00,029.2,026.2,000.0,037.6,030.6,12.0,0004.8,0010.94,0005.63,0004.83
2023-06-24 20:33:00,SystemResetWarning,0830.2,5.00,000.00,029.2,026.6,000.0,037.7,030.6,11.1,0004.6,0010.98,0005.72,0004.94
2023-06-24 20:34:00,SystemResetWarning,0830.2,5.02,000.00,029.2,026.9,000.0,037.7,030.7,10.7,0004.6,0010.72,0005.80,0005.04
2023-06-24 20:35:00,SystemResetWarning,0830.3,5.00,000.00,029.2,027.2,000.0,037.7,030.8,12.9,0004.4,0011.02,0005.88,0005.12
2023-06-24 20:36:00,SystemResetWarning,0830.2,5.00,000.00,029.3,027.5,000.0,037.7,030.8,12.3,0004.4,0011.33,0005.98,0005.19
2023-06-24 20:37:00,SystemResetWarning,0830.2,5.00,000.00,029.3,027.7,000.0,037.7,030.9,11.9,0004.4,0011.77,0006.08,0005.29
2023-06-24 20:38:00,SystemResetWarning,0830.2,4.98,000.00,029.3,026.6,000.0,037.7,030.8,11.7,0004.2,0011.77,0006.11,0005.33
2023-06-24 20:39:00,SystemResetWarning,0830.2,5.01,000.00,029.3,025.3,000.0,037.6,030.7,11.4,0004.3,0013.01,0006.09,0005.37
2023-06-24 20:40:00,SystemResetWarning,0830.2,5.01,000.00,029.2,025.5,000.0,037.6,030.7,11.5,0004.0,0014.43,0006.07,0005.39
2023-06-24 20:41:00,SystemResetWarning,0830.2,4.98,000.00,029.2,025.9,000.0,037.6,030.5,12.2,0004.3,0014.69,0006.07,0005.39
2023-06-24 20:42:00,SystemResetWarning,0830.2,4.99,000.00,029.2,026.2,000.0,037.6,030.6,12.1,0004.2,0015.28,0006.09,0005.41
2023-06-24 20:43:00,SystemResetWarning,0830.2,5.02,000.00,029.2,026.6,000.0,037.6,030.6,12.1,0004.1,0016.30,0006.13,0005.41
2023-06-24 20:44:00,SystemResetWarning,0830.2,5.00,000.00,029.2,027.0,000.0,037.7,030.7,11.7,0004.2,0015.83,0006.17,0005.42
2023-06-24 20:45:00,SystemResetWarning,0830.2,4.99,000.00,029.2,027.3,000.0,037.7,030.8,12.8,0003.8,0016.21,0006.17,0005.42
2023-06-24 20:46:00,SystemResetWarning,0830.2,4.99,000.00,029.2,027.5,000.0,037.7,030.8,12.8,0003.7,0015.99,0006.15,0005.41
2023-06-24 20:47:00,SystemResetWarning,0830.2,5.00,000.00,029.3,027.7,000.0,037.7,030.9,12.6,0003.4,0015.80,0006.13,0005.41
2023-06-24 20:48:00,SystemResetWarning,0830.2,4.99,000.00,029.3,026.9,000.0,037.7,030.9,12.9,0003.1,0015.71,0006.09,0005.34
2023-06-24 20:49:00,SystemResetWarning,0830.2,5.00,000.00,029.2,024.7,000.0,037.6,030.6,11.7,0002.9,0015.88,0006.06,0005.29
2023-06-24 20:50:00,SystemResetWarning,0830.1,5.01,000.00,029.2,024.3,000.0,037.6,030.7,11.7,0002.3,0015.58,0006.07,0005.25
2023-06-24 20:51:00,SystemResetWarning,0830.1,5.01,000.00,029.1,024.8,000.0,037.5,030.4,12.1,0002.5,0015.77,0006.10,0005.25
2023-06-24 20:52:00,SystemResetWarning,0830.1,4.99,000.00,029.0,025.2,000.0,037.5,030.3,11.8,0002.1,0015.43,0006.12,0005.29
2023-06-24 20:53:00,SystemResetWarning,0830.1,5.00,000.00,029.0,025.7,000.0,037.6,030.3,12.2,0002.0,0014.73,0006.12,0005.31
2023-06-24 20:54:00,SystemResetWarning,0830.0,4.99,000.00,029.0,026.2,000.0,037.6,030.4,12.1,0002.2,0013.64,0006.12,0005.33
2023-06-24 20:55:00,SystemResetWarning,0830.0,4.99,000.00,029.0,026.6,000.0,037.6,030.5,11.8,0002.4,0013.83,0006.20,0005.36
2023-06-24 20:56:00,SystemResetWarning,0830.1,4.99,000.00,029.1,026.9,000.0,037.6,030.6,11.4,0002.7,0013.75,0006.25,0005.36
2023-06-24 20:57:00,SystemResetWarning,0830.1,5.00,000.00,029.1,027.2,000.0,037.6,030.7,10.7,0003.1,0014.31,0006.29,0005.40
2023-06-24 20:58:00,SystemResetWarning,0830.1,5.01,000.00,029.1,027.5,000.0,037.6,030.7,11.4,0003.5,0014.36,0006.35,0005.44
2023-06-24 20:59:00,SystemResetWarning,0830.2,5.01,000.00,029.2,027.6,000.0,037.6,030.8,12.7,0003.3,0014.26,0006.39,0005.47
